Location: Forst
(46.9333°N, 15.4333°E)
Time: 07:29:56
(UTC+00:00)

Lacrosse 5 rocket - Pass Details

Date: 18 April 2021
Orbit: 460 x 634 km, 57.0° (Epoch: 12 May)

Event Time Altitude Azimuth Distance (km) Brightness Sun altitude
Rises 21:06:30 0° 303° (WNW) 2,752 5.9 -26.9°
Reaches altitude 10° 21:09:03 10° 317° (NW) 1,888 5.0 -27.1°
Maximum altitude 21:12:34 24° 12° (NNE) 1,246 3.5 -27.4°
Enters shadow 21:14:09 20° 43° (NE) 1,415 3.5 -27.5°
